< < Back
Terminal Aerodrome Forecast


Current Version              Previous Versions:   1  2  3  4  5  6  7  8  9  

Terminal Aerodrome Forecast

861
FTUS44 KMOB 310520
TAFMOB
TAF
KMOB 310520Z 3106/0106 33003KT P6SM FEW030 OVC250
     FM311300 02007KT P6SM SCT030 BKN250
     FM311700 04007KT P6SM VCTS SCT040CB SCT250
      TEMPO 3117/3121 3SM TSRA BKN040CB
     FM312100 04005KT P6SM VCTS SCT040CB SCT250 PROB30 3121/0103
      VRB20G25KT 3SM TSRA BKN040CB BKN100 OVC250=

Latest METAR

943
SAUS80 KWBC 311900 RRA
MTRMOB
METAR KMOB 311856Z 32006KT 10SM SCT029 SCT080 BKN250 33/25 A2993 RMK AO2
SLP131 T03280250


USA.gov is the U.S. government's official web portal to all federal, state and local government web resources and services.